Flag for U.S.A. Weather past 2 weeks in Honolulu, Hawaii, U.S.A.

Now
80 °F

Passing clouds.


Feels Like: 84 °F
Forecast: 75 / 83 °F
Wind: No wind

Location: Honolulu International Airport

Current Time: Sep 5, 2015 at 12:28:12 AM

Latest Report: Sep 4, 2015 at 11:53 PM


Visibility: 10 mi

Pressure: 29.86 "Hg

Humidity: 76%

Dew point: 72 °F

Location of HonoluluLocation

Historic Weather in Honolulu — Graph

°F

Honolulu temperature yesterday

Maximum temperature yesterday: 90 °F (at 12:11 PM)
Minimum temperature yesterday: 72 °F (at 5:53 AM)
Average temperature yesterday: 82 °F

Past Weeks' High & Low Weather Summary

 TemperatureHumidityPressure
High91 °F (Aug 21, 1:53 PM)100% (Aug 23, 7:31 PM)29.95 "Hg (Aug 23, 7:31 PM)
Low72 °F (Sep 4, 5:53 AM)49% (Aug 21, 1:53 PM)29.77 "Hg (Sep 1, 2:53 PM)
Average82 °F79%29.87 "Hg
* Reported Aug 20 10:53 PM — Sep 4 10:53 PM, Honolulu, Weather by CustomWeather, © 2015

Note: Actual official high and low records may vary slightly from our data, if they occured in-between our weather recording intervals... More about our weather records

Advertising

Honolulu weather history for previous 24 hours

 ConditionsComfort  
Time TempWeatherWind HumidityBarometerVisibility
10:53 PM
Fri, Sep 4
81 °FPassing clouds.7 mph74%29.87 "Hg10 mi
9:53 PM82 °FPassing clouds.9 mph72%29.87 "Hg10 mi
8:53 PM82 °FPassing clouds.7 mph72%29.87 "Hg10 mi
8:16 PM82 °FPassing clouds.8 mph70%29.86 "Hg10 mi
7:53 PM83 °FPassing clouds.10 mph72%29.85 "Hg10 mi
6:53 PM84 °FPassing clouds.7 mph67%29.83 "Hg10 mi
5:53 PM85 °FScattered clouds.9 mph68%29.81 "Hg10 mi
4:53 PM85 °FBroken clouds.3 mph72%29.80 "Hg10 mi
3:53 PM85 °FLight rain. Broken clouds.6 mph72%29.80 "Hg10 mi
2:53 PM85 °FBroken clouds.10 mph72%29.80 "Hg10 mi
2:08 PM81 °FBroken clouds.10 mph79%29.82 "Hg10 mi
1:53 PM83 °FThunderstorms. Broken clouds.12 mph74%29.82 "Hg10 mi
1:19 PM88 °FBroken clouds.13 mph62%29.83 "Hg10 mi
12:53 PM87 °FThunderstorms. Broken clouds.17 mph67%29.83 "Hg10 mi
12:11 PM90 °FThunderstorms. Broken clouds.13 mph59%29.84 "Hg10 mi
11:53 AM89 °FMostly cloudy.9 mph59%29.85 "Hg10 mi
10:53 AM88 °FBroken clouds.5 mph61%29.85 "Hg10 mi
9:59 AM83 °FWarm.N/A71%29.87 "HgN/A
8:53 AM82 °FScattered clouds.5 mph78%29.87 "Hg10 mi
7:53 AM80 °FScattered clouds.No wind81%29.87 "Hg10 mi
6:53 AM78 °FScattered clouds.No wind93%29.86 "Hg10 mi
5:53 AM72 °FPassing clouds.3 mph100%29.84 "Hg10 mi
4:53 AM78 °FPartly cloudy.3 mph82%29.84 "Hg10 mi
4:41 AM73 °FPassing clouds.5 mph100%29.84 "Hg10 mi
3:53 AM78 °FPartly cloudy.No wind84%29.83 "Hg10 mi
2:53 AM78 °FPartly cloudy.5 mph84%29.84 "Hg10 mi
1:53 AM76 °FPartly cloudy.No wind90%29.86 "Hg10 mi
12:53 AM77 °FPartly cloudy.No wind82%29.87 "Hg10 mi
Weather by CustomWeather, © 2015

See weather overviewHow to use our weather pages